This demonstration page uses our WeatherBlox Daily Observations layout. Learn more.

Left ArrowRight Arrow

Hourly Observations for February 11, 2022

Temp ( °F °C ) Dew Point ( °F °C ) Humidity (%) Winds ( mph kmh ) Pressure ( in mb ) Visibility ( mi km ) Precip ( " mm )
12:07 am 00:07 Cloudy with Rain 46 8 41 5 82 82 NNW 6 9 29.67 1005 9 14 0.00 0.00
12:56 am 00:56 Mostly Clear with Light Rain 45 7.4 43 6 91 91 NNW 5 7 29.65 1004 5 8 0.05 1.27
1:56 am 01:56 Cloudy with Light Rain 45 7.1 43 5.9 92 92 NW 5 7 29.64 1004 5 8 0.07 1.78
2:56 am 02:56 Cloudy with Light Rain 44 6.9 43 6 94 94 NW 10 17 29.67 1005 5 8 0.09 2.29
3:56 am 03:56 Mostly Cloudy with Light Rain 44 6.6 40 4.6 87 87 WNW 9 15 29.67 1005 10 16 0.05 1.27
4:56 am 04:56 Partly Cloudy with Light Rain 44 6.4 40 4.2 86 86 WNW 12 19 29.70 1006 5 8 0.00 0.00
5:56 am 05:56 Cloudy with Light Rain 43 6 38 3.3 83 83 WNW 10 17 29.71 1006 5 8 0.01 0.25
6:41 am 06:41 Cloudy 43 6 37 3 81 81 WNW 17 28 29.73 1007 10 16 0.00 0.00
6:56 am 06:56 Cloudy 43 5.9 37 2.5 79 79 WNW 16 26 29.75 1008 10 16 0.00 0.00
7:56 am 07:56 Mostly Cloudy 42 5.4 35 1.7 77 77 NW 15 24 29.79 1009 10 16 0.00 0.00
8:56 am 08:56 Mostly Cloudy 43 6 35 1.5 73 73 WNW 13 20 29.80 1009 10 16 0.00 0.00
9:56 am 09:56 Partly Cloudy 44 6.9 35 1.8 70 70 NW 20 31 29.82 1010 10 16 0.00 0.00
10:38 am 10:38 Cloudy 43 6 34 1 71 71 NW 18 30 29.86 1011 10 16 0.00 0.00
10:56 am 10:56 Partly Cloudy 44 6.4 30 -1 59 59 NW 24 39 29.86 1011 10 16 0.00 0.00
11:56 am 11:56 Mostly Cloudy 42 5.7 29 -1.9 58 58 NNW 25 41 29.92 1013 10 16 0.00 0.00
12:29 pm 12:29 Mostly Cloudy 37 3 23 -5 56 56 NNW 28 44 29.96 1015 10 16 0.00 0.00
12:56 pm 12:56 Partly Cloudy 37 2.6 22 -5.5 56 56 NNW 22 35 29.98 1015 10 16 0.00 0.00
1:56 pm 13:56 Mostly Cloudy 35 1.8 19 -7.3 51 51 NNW 26 43 30.02 1017 10 16 0.00 0.00
2:56 pm 14:56 Sunny 32 0.1 13 -10.7 44 44 NW 24 39 30.08 1019 10 16 0.00 0.00
3:56 pm 15:56 Sunny 30 -0.9 10 -12.2 42 42 NW 24 39 30.13 1020 10 16 0.00 0.00
4:56 pm 16:56 Sunny 28 -2 9 -12.9 43 43 NNW 26 43 30.18 1022 10 16 0.00 0.00
5:56 pm 17:56 Clear 25 -4 5 -14.8 43 43 NNW 25 41 30.24 1024 10 16 0.00 0.00
6:56 pm 18:56 Clear 22 -5.5 3 -15.9 44 44 NNW 22 35 30.31 1026 10 16 0.00 0.00
7:56 pm 19:56 Clear 20 -6.5 3 -16 47 47 N 18 30 30.36 1028 10 16 0.00 0.00
8:56 pm 20:56 Clear 19 -7.4 3 -16.3 49 49 NNW 17 28 30.39 1029 10 16 0.00 0.00
9:56 pm 21:56 Clear 17 -8.2 2 -16.8 50 50 NNW 12 19 30.43 1030 10 16 0.00 0.00
10:56 pm 22:56 Clear 16 -9 1 -17.1 52 52 N 14 22 30.44 1031 10 16 0.00 0.00
11:56 pm 23:56 Clear 14 -10 0 -18 52 52 NNW 17 28 30.48 1032 10 16 0.00 0.00

Powered by AerisWeather